{"data":{"norad_id":48273,"intl_designator":"2021-034F","name":"LEMUR-2-SPECIAL-K","alt_names":[],"object_type":"PAYLOAD","status":"ACTIVE","operator":null,"country":"US","launch_date":"2021-04-29","launch_site_code":"FRGUI","launch_vehicle":null,"mission":null,"orbit_class":"UNKNOWN","rcs_meters":null,"size_class":null,"mass_kg":null,"dimensions":null,"purposes":["earth_obs"],"wikipedia_slug":null,"has_3d_model":false,"image_url":null,"decayed_at":null,"tle_current":{"epoch":"2026-08-21T02:19:03.417312Z","epoch_age_seconds":2641320,"freshness":"OLD","line1":"1 48273U 21034F   26233.09656733  .05654661  25669-5  16672-2 0  9999","line2":"2 48273  97.5497 326.3204 0015508 267.2653  92.6864 16.26892736291947","mean_motion":16.26892736,"eccentricity":0.0015508,"inclination_deg":97.5497,"raan_deg":326.3204,"arg_perigee_deg":267.2653,"mean_anomaly_deg":92.6864,"bstar":0.0016672,"rev_number":29194,"period_min":88.512288987195,"perigee_km":190.7007451973,"apogee_km":211.10629727797,"semimajor_km":6579.0405212376,"source":"CELESTRAK","updated_at":"2026-08-22T09:00:28.431280Z"}}}